Theta_e
342 342 343 345 345 346 345 347 350 351 351 350 350 351 351 352 351 351 351 351 349 343
342 342 343 345 347 347 348 348 349 351 351 350 350 352 352 350 350 350 352 349 351 352
342 343 343 346 346 346 347 349 351 350 351 350 352 353 351 352 351 350 350 349 349 351
344 343 342 344 347 347 347 348 349 351 350 350 349 351 352 351 351 349 350 350 349 349
344 345 345 346 347 347 346 348 348 347 346 347 349 351 351 350 352 349 348 349 349 349
343 344 344 347 348 348 344 347 345 343 342 343 349 350 351 351 351 351 350 350 349 350
344 344 345 346 347 348 347 347 345 345 345 347 351 351 352 352 352 352 352 352 350 350
345 345 344 345 346 347 348 348 347 345 346 349 349 347 347 348 349 350 349 345 343 343
344 344 344 344 344 345 345 346 348 348 347 343 341 328 331 335 343 347 347 342 339 338
342 342 342 342 342 342 341 343 343 341 339 337 332 322 324 329 341 345 342 336 333 333
339 338 340 340 340 341 342 340 334 330 331 331 329 324 321 328 342 339 337 333 329 329
338 336 338 334 332 332 331 325 323 322 323 327 328 321 323 330 329 324 321 320 321 323
336 335 332 328 325 320 317 314 314 315 317 316 325 319 320 324 321 316 314 318 318 317
335 331 328 325 321 318 316 316 317 315 313 313 315 323 318 317 319 316 315 316 317 315
Wind_Speed
7 5 4 4 4 3 4 3 4 4 4 4 4 3 2 0 1 1 2 2 2 2
5 6 6 6 4 3 4 4 5 5 5 5 5 4 4 2 2 2 2 2 2 1
5 5 5 4 5 6 5 4 4 5 5 6 5 4 4 3 3 4 3 2 3 1
7 6 4 5 5 5 4 5 5 4 4 5 6 5 4 5 5 4 3 3 4 4
7 6 5 5 5 5 6 4 4 4 4 5 6 5 6 6 5 6 5 5 4 4
8 7 7 7 5 5 4 5 4 4 5 5 5 5 6 6 5 5 5 5 5 5
10 10 9 8 6 5 5 5 5 4 5 5 5 5 5 5 6 6 5 4 4 5
10 8 6 6 6 4 4 5 5 5 5 4 5 3 4 4 5 5 4 3 3 2
8 8 7 6 5 4 4 5 5 6 7 6 3 4 2 3 5 4 6 6 3 2
9 9 8 7 6 5 4 4 6 5 4 4 5 2 3 7 4 4 4 4 4 0
5 7 4 5 4 4 3 4 2 3 4 4 4 6 8 7 4 5 6 5 1 1
6 6 7 5 4 3 3 2 2 1 2 3 3 6 6 8 6 8 7 6 5 4
9 6 6 7 6 2 3 4 4 3 4 4 2 2 7 8 5 8 6 5 5 11
12 10 8 5 5 5 6 5 4 4 4 4 4 2 5 11 6 5 4 6 3 5
Wind_Direction
174 178 189 195 196 207 198 190 183 209 199 206 210 198 197 204 197 243 248 223 210 181
192 183 192 202 194 197 194 212 209 200 194 205 207 192 179 201 223 201 240 269 293 251
207 199 189 185 200 200 204 212 211 202 196 202 207 206 184 189 227 207 201 215 247 243
192 196 203 203 207 211 205 202 222 227 207 198 198 206 206 209 197 216 215 212 220 243
189 189 191 214 219 197 219 215 217 193 196 204 206 201 204 220 214 209 215 220 217 235
191 188 196 201 216 222 204 211 216 209 209 220 207 212 212 208 215 219 225 219 217 223
197 196 200 198 204 203 207 199 205 209 225 224 232 222 214 211 217 212 214 219 221 220
199 191 182 193 195 206 214 220 201 197 210 208 209 200 203 217 229 222 203 179 163 138
184 170 177 173 166 167 204 224 216 208 198 192 180 142 169 215 234 207 183 174 143 119
174 169 169 159 154 159 202 221 219 195 192 182 135 150 236 235 234 195 149 126 110 68
161 140 148 143 163 153 173 201 209 177 161 166 174 236 176 227 175 114 104 104 93 147
126 159 135 156 149 131 145 118 82 53 129 168 175 306 183 186 140 111 102 102 83 84
140 146 160 134 121 71 91 101 98 94 36 347 231 357 164 136 134 122 116 89 97 68
143 144 117 108 95 115 104 118 109 115 72 48 353 121 222 140 131 120 117 107 95 57